Location: Albany
(35.0000°S, 118.0000°E)
Time: 18:00:03
(UTC-04:00)

Daily predictions for brighter satellites

Satellite Brightness Start Highest point End
(mag) Time Altitude Azimuth Time Altitude Azimuth Time Altitude Azimuth
Cosmos 2219 Rocket 4.5 15:41:32 19° E 15:41:32 19° E 15:43:35 10° ENE
Cosmos 2297 Rocket 3.8 16:02:38 31° ENE 16:02:38 31° ENE 16:07:33 10° SE
ATLAS 2AS CENTAUR R/B 4.0 16:10:24 27° SSE 16:10:24 27° SSE 16:13:01 10° SSE
Longmarch 3A Rocket 4.3 16:15:28 26° NE 16:15:28 26° NE 16:21:40 10° E
Lacrosse 4 Rocket 4.3 16:20:32 12° NE 16:20:32 12° NE 16:20:51 10° NE
NOSS 0 Rocket 4.4 16:23:08 56° SE 16:23:25 57° ESE 16:29:29 10° NE
Cosmos 1980 3.9 16:45:47 59° SSE 16:46:43 71° ESE 16:52:22 10° NNE
Meteor 1-21 Rocket 4.3 16:51:32 65° SSW 16:51:32 65° SSW 16:56:30 10° S
Cosmos 2237 Rocket 2.3 16:50:03 51° S 16:51:26 71° ESE 16:57:04 10° NNE
BREEZE M DEB (TANK) 3.2 16:57:51 47° SE 16:57:51 47° SE 17:02:22 10° SE
CZ-4C R/B 4.3 16:54:49 10° S 16:59:03 20° SE 17:03:02 10° E
SPOT 3 Rocket 4.2 16:57:51 10° NNE 17:02:52 53° ESE 17:07:58 10° S
COSMOS 2455 2.9 17:01:22 37° SSW 17:03:53 79° ESE 17:09:53 10° NNE
Cosmos 1655 Rocket 4.0 16:58:14 10° NNW 17:04:30 58° W 17:10:47 10° S
IRS-1A Rocket 4.3 16:58:44 10° NNE 17:04:39 83° WNW 17:08:47 21° SSW
ATLAS 3B R/B 2.8 17:03:57 31° SSW 17:07:49 89° ESE 17:15:24 10° NNE
Cosmos 2333 Rocket 2.1 17:08:52 57° WSW 17:09:48 68° WNW 17:15:25 10° N
Cosmos 2082 4.2 17:13:26 40° SSW 17:13:26 40° SSW 17:17:45 10° S
Cosmos 292 Rocket 4.4 17:14:36 39° NW 17:14:36 39° NW 17:18:01 10° N
S3M 3.9 17:09:21 10° S 17:15:44 84° W 17:21:55 10° N
Cosmos 2058 3.9 17:13:44 10° NNE 17:17:46 47° E 17:21:50 10° SSE
YAOGAN 1 3.5 17:15:02 10° NNE 17:19:14 49° ESE 17:23:29 10° S
Cosmos 1328 3.8 17:17:07 10° N 17:21:09 81° E 17:25:12 10° S
Cosmos 2266 Rocket 4.3 17:15:37 10° N 17:21:56 71° E 17:28:24 10° S
Cosmos 2219 Rocket 2.7 17:23:19 37° WNW 17:23:19 37° WNW 17:28:00 10° N
Cosmos 2227 Rocket 3.0 17:25:51 31° SW 17:25:51 31° SW 17:29:51 10° S
CZ-4 R/B 1.2 17:27:37 10° N 17:31:39 78° WNW 17:34:04 24° SSW
IDEFIX/ARIANE 42P 3.9 17:29:35 10° NE 17:34:28 40° ESE 17:39:24 10° S
Cosmos 1300 3.7 17:31:15 10° S 17:35:03 49° E 17:38:48 10° NNE
CZ-3 Stage 3 4.3 17:38:49 24° WNW 17:41:57 65° N 18:08:06 10° E
Cosmos 1346 4.4 17:40:35 10° NNE 17:43:30 42° E 17:46:27 10° SSE
Cosmos 2297 Rocket 2.9 17:44:35 25° W 17:46:32 32° WSW 17:51:36 10° S
Cosmos 44 4.3 17:48:40 22° SW 17:48:40 22° SW 17:51:18 10° S
Cosmos 2151 3.4 17:46:25 10° NNW 17:50:25 38° W 17:54:27 10° S
Meteor 2-20 Rocket 4.4 17:45:50 10° NNW 17:51:54 62° W 17:58:04 10° S
Thor Agena Rocket 4.4 17:48:23 10° S 17:52:46 28° WSW 17:57:05 10° NW
Lacrosse 4 Rocket 3.6 17:56:58 10° NW 17:56:58 10° NW 17:57:07 10° NW
Cosmos 1553 Rocket 4.5 17:49:46 10° SSW 17:55:36 39° W 18:01:27 10° NNW
ATLAS 2AS CENTAUR R/B 4.0 17:57:53 15° SW 17:58:23 16° SW 18:01:57 10° S
Cosmos 1048 Rocket 4.2 17:56:28 10° SSW 18:01:40 72° ESE 18:06:50 10° NNE
FALCON 9 R/B 3.3 17:57:53 20° W 18:01:57 87° N 18:21:15 10° E
SJ-7 4.4 17:57:47 10° N 18:02:00 75° WNW 18:06:13 10° SSW
CZ-2C R/B 2.5 17:57:28 10° NNE 18:02:35 90° W 18:07:37 10° SSW
CORIOLIS 4.1 17:57:52 10° N 18:03:14 73° WNW 18:08:41 10° SSW
Cosmos 1633 Rocket 3.1 17:59:15 10° N 18:03:42 88° ENE 18:08:14 10° S
Cosmos 1703 3.6 18:01:25 10° N 18:05:22 69° E 18:09:23 10° SSE
SL-16 R/B 2.2 18:00:08 10° SSW 18:05:46 62° WNW 18:11:20 10° N
Cosmos 372 Rocket 3.9 18:01:13 10° NNW 18:06:21 84° WSW 18:11:37 10° SSE
Cosmos 1125 Rocket 3.7 18:01:52 10° NW 18:06:53 47° WSW 18:12:00 10° S
Cosmos 1271 Rocket 2.6 18:04:16 10° S 18:08:06 78° W 18:11:52 10° N
NAVSTAR 52 R/B(PAM-D 4.3 18:08:37 26° SW 18:09:26 36° S 18:12:05 10° ESE
SKYMED 2 3.8 18:05:09 10° SSE 18:09:35 74° ENE 18:13:56 10° N
USA 215 3.3 18:03:30 10° NE 18:10:04 84° SE 18:16:41 10° SW
BREEZE M DEB (TANK) 4.2 18:09:34 16° W 18:12:34 48° SSW 18:23:31 10° SE
Cosmos 1626 3.6 18:09:42 10° NNE 18:13:15 41° E 18:16:53 10° SSE
Gbstr 26 Del rocket 4.4 18:10:16 16° W 18:13:53 34° SSW 18:19:32 10° SE
Cosmos 1151 Rocket 4.4 18:13:29 14° SW 18:15:31 19° W 18:18:32 10° NW
Aureole 2 Rocket 1.9 18:14:38 10° SSW 18:17:44 89° W 18:20:35 10° NNE
SL-14 R/B 3.8 18:14:52 10° NNW 18:18:28 36° W 18:22:07 10° S
OAO 3 Copernicus 4.5 18:15:46 14° W 18:20:08 69° NNW 18:25:11 10° ENE
Cosmos 2263 Rocket 4.4 18:18:46 10° NNE 18:23:34 30° ENE 18:28:26 10° SE
SMAP 3.8 18:21:14 10° NNW 18:25:26 33° W 18:29:42 10° SSW
USA 238 DEB 4.0 18:21:20 10° SW 18:28:16 55° WNW 18:35:10 10° N
USA 238 4.0 18:21:27 10° SW 18:28:24 56° WNW 18:35:18 10° N
Cosmos 2227 4.3 18:25:19 10° NW 18:30:54 54° WSW 18:36:30 10° SSE
Cosmos 2237 Rocket 3.9 18:32:27 10° WSW 18:34:46 13° W 18:37:04 10° WNW
GEOS 3 Rocket 4.3 18:30:40 10° SSE 18:35:30 36° SW 18:40:17 10° WNW
Cosmos 1745 Rocket 4.5 18:30:11 10° N 18:36:30 71° E 18:42:55 10° S
Meteor 2-10 4.1 18:32:56 10° SSW 18:38:12 74° W 18:43:37 10° N
H-2A R/B 4.1 18:33:50 10° NW 18:38:29 52° NNE 19:07:43 10° E
SAR-Lupe-1 4.4 18:35:12 10° N 18:38:39 46° W 18:42:10 10° SSW
Cosmos 1867 3.7 18:34:10 10° SSW 18:39:36 84° ESE 18:45:01 10° NNE
Atlas Centaur 2 3.9 18:34:04 10° WNW 18:41:55 53° NNE 18:50:13 10° E
MSX 3.9 18:36:55 10° N 18:42:39 69° WNW 18:48:27 10° SSW
Cosmos 1603 3.7 18:38:00 10° SSW 18:43:42 81° WNW 18:49:17 10° NNE
CZ-4C R/B 2.3 18:42:29 10° SW 18:48:01 57° WNW 18:53:04 10° NNE
